Spriggs Payne Airport

Jump to: basic info | weather | frequencies | runways | comments

Related pages: nearby airports | nearby navaids | notams | map

Basic information (top)

Codes: MLW GLMR
Location: lon 6.289060, lat -10.758700, elev 25 ft / 8 m msl
Status: medium_airport
Scheduled airline service: yes
Links: Wikipedia Mobile

Weather (top)

Current conditions for Roberts International Airport 24nm (44km) E (rec'd 2014/10/24 05:00Z):

GLRB 240500Z 00000KT 9999 FEW006 BKN011 FEW022CB 24/23 Q1011 RMK CB-SW/W

Airport forecast for Roberts International Airport 24nm (44km) E (rec'd 2014/10/23 00:54Z):

TAF GLRB 232200Z 2400/2506 22010KT 9999 BKN016 FEW024 CB 
      TEMPO 2401/2405 06005KT 8000 -TSRA/TS BKN012 FEW022CB 
     FM240600 04006KT 9000 SCT013 BKN100 
      TEMPO 2413/2417 24008KT 9999

Frequencies (top)

Verify before use: may be inaccurate or out of date.

APP: 124.5 MHz (ROBERTS APP)
TWR: 118.7 MHz (SPRIGGS TWR)

Runways (top)

05/23: 6,000 x 100 ft (1,829 x 30 m) — paved — lighted — threshold 05 displaced 200 ft (61 m) — threshold 23 displaced 200 ft (61 m)

Latest comments (top)

No comments yet for Spriggs Payne Airport

More... (top)

See also NOTAMs and nearby airports and navaids, or visit the Spriggs Payne Airport page at the main OurAirports website..